| time (UTC) | temp C | wind direction | speed KPH | gust KPH | rain 1hr cm | rain 24hr cm | rain mn cm | humidity % | barometer mb |
| 20260502123003 | 12 | 124 | 0.0 | 1.6 | 0.05 | 0.15 | 0.13 | 96 | 1011.1 |
| 20260502121525 | 12 | 109 | 0.0 | 1.6 | 0.03 | 0.13 | 0.10 | 96 | 1011.2 |
| 20260502114504 | 12 | 0 | 0.0 | 0.0 | 0.08 | 0.13 | 0.10 | 96 | 1011.3 |
| 20260502113004 | 12 | 0 | 0.0 | 0.0 | 0.05 | 0.10 | 0.08 | 96 | 1011.3 |
| 20260502111503 | 12 | 0 | 0.0 | 0.0 | 0.08 | 0.10 | 0.08 | 96 | 1011.2 |
| 20260502110004 | 12 | 0 | 0.0 | 0.0 | 0.05 | 0.08 | 0.05 | 96 | 1011.1 |
| 20260502104504 | 12 | 0 | 0.0 | 0.0 | 0.03 | 0.05 | 0.03 | 96 | 1011.1 |
| 20260502103025 | 12 | 0 | 0.0 | 0.0 | 0.03 | 0.05 | 0.03 | 96 | 1011.0 |
| 20260502101504 | 12 | 0 | 0.0 | 0.0 | 0.00 | 0.03 | 0.00 | 96 | 1010.8 |
| 20260502091525 | 12 | 0 | 0.0 | 0.0 | 0.00 | 0.03 | 0.00 | 96 | 1010.7 |
| 20260502071526 | 12 | 0 | 0.0 | 0.0 | 0.00 | 0.03 | 0.00 | 95 | 1010.2 |
| 20260502070005 | 12 | 0 | 0.0 | 0.0 | 0.00 | 0.03 | 0.00 | 95 | 1010.3 |
| 20260502064506 | 12 | 0 | 0.0 | 0.0 | 0.00 | 0.03 | 0.00 | 95 | 1010.5 |
| 20260502063005 | 12 | 0 | 0.0 | 0.0 | 0.00 | 0.03 | 0.00 | 95 | 1010.5 |
| 20260502061505 | 12 | 0 | 0.0 | 0.0 | 0.00 | 0.03 | 0.00 | 95 | 1010.8 |
| 20260502060005 | 12 | 0 | 0.0 | 0.0 | 0.00 | 0.03 | 0.00 | 95 | 1011.0 |
| 20260502054505 | 12 | 0 | 0.0 | 0.0 | 0.00 | 0.03 | 0.00 | 95 | 1011.2 |
| 20260502053006 | 11 | 0 | 0.0 | 0.0 | 0.00 | 0.03 | 0.00 | 95 | 1011.4 |
| 20260502051505 | 11 | 0 | 0.0 | 0.0 | 0.00 | 0.03 | 0.00 | 94 | 1011.6 |
| 20260502050026 | 11 | 0 | 0.0 | 0.0 | 0.00 | 0.03 | 0.00 | 94 | 1011.8 |
| 20260502044505 | 11 | 0 | 0.0 | 0.0 | 0.00 | 0.03 | 0.00 | 94 | 1011.8 |
| 20260502043005 | 11 | 0 | 0.0 | 0.0 | 0.00 | 0.03 | 0.00 | 93 | 1012.0 |
| 20260502041505 | 12 | 0 | 0.0 | 0.0 | 0.00 | 0.03 | 0.00 | 93 | 1012.1 |
| 20260502040006 | 12 | 0 | 0.0 | 0.0 | 0.00 | 0.03 | 0.00 | 93 | 1012.1 |
| 20260502034505 | 12 | 0 | 0.0 | 0.0 | 0.00 | 0.03 | 0.03 | 92 | 1012.3 |
| 20260502033004 | 12 | 268 | 0.0 | 1.6 | 0.03 | 0.03 | 0.03 | 91 | 1012.3 |
| 20260502031526 | 12 | 0 | 0.0 | 0.0 | 0.03 | 0.03 | 0.03 | 90 | 1012.4 |
| 20260502030005 | 12 | 0 | 0.0 | 0.0 | 0.03 | 0.03 | 0.03 | 88 | 1012.8 |
| 20260502024504 | 13 | 0 | 0.0 | 0.0 | 0.03 | 0.03 | 0.03 | 84 | 1012.8 |
| 20260502023005 | 13 | 0 | 0.0 | 0.0 | 0.00 | 0.00 | 0.00 | 81 | 1012.9 |
| 20260502021505 | 13 | 267 | 0.0 | 1.6 | 0.00 | 0.00 | 0.00 | 79 | 1012.8 |
| 20260502020006 | 13 | 303 | 0.0 | 1.6 | 0.00 | 0.00 | 0.00 | 78 | 1013.0 |
| 20260502014504 | 13 | 287 | 0.0 | 4.8 | 0.00 | 0.00 | 0.00 | 76 | 1012.9 |
| 20260502013005 | 13 | 258 | 0.0 | 1.6 | 0.00 | 0.00 | 0.00 | 79 | 1012.9 |
| 20260502011505 | 13 | 0 | 0.0 | 0.0 | 0.00 | 0.00 | 0.00 | 78 | 1012.9 |
| 20260502010026 | 13 | 286 | 0.0 | 3.2 | 0.00 | 0.00 | 0.00 | 77 | 1012.8 |
| 20260502004505 | 13 | 271 | 0.0 | 6.4 | 0.00 | 0.00 | 0.00 | 76 | 1012.8 |
| 20260502003006 | 13 | 288 | 0.0 | 1.6 | 0.00 | 0.00 | 0.00 | 77 | 1012.8 |
| 20260502001505 | 13 | 271 | 0.0 | 1.6 | 0.00 | 0.00 | 0.00 | 77 | 1013.0 |
| 20260502000005 | 14 | 264 | 0.0 | 4.8 | 0.00 | 0.00 | 0.00 | 78 | 1012.4 |
| 20260501234526 | 15 | 279 | 0.0 | 1.6 | 0.00 | 0.00 | 0.00 | 75 | 1012.1 |
| 20260501233005 | 15 | 272 | 0.0 | 4.8 | 0.00 | 0.00 | 0.00 | 72 | 1012.1 |
| 20260501231505 | 15 | 0 | 0.0 | 0.0 | 0.00 | 0.00 | 0.00 | 72 | 1012.2 |
| 20260501230004 | 15 | 284 | 0.0 | 3.2 | 0.00 | 0.00 | 0.00 | 71 | 1012.4 |
| 20260501224505 | 15 | 306 | 0.0 | 3.2 | 0.00 | 0.00 | 0.00 | 73 | 1012.4 |
| 20260501223004 | 15 | 62 | 0.0 | 1.6 | 0.00 | 0.00 | 0.00 | 76 | 1012.2 |
| 20260501221525 | 15 | 58 | 0.0 | 3.2 | 0.00 | 0.00 | 0.00 | 74 | 1012.3 |
| 20260501220005 | 15 | 55 | 0.0 | 3.2 | 0.00 | 0.00 | 0.00 | 75 | 1012.5 |
| 20260501214505 | 15 | 56 | 0.0 | 3.2 | 0.00 | 0.00 | 0.00 | 73 | 1012.4 |
| 20260501213004 | 15 | 67 | 0.0 | 1.6 | 0.00 | 0.00 | 0.00 | 71 | 1012.6 |
| 20260501211505 | 16 | 331 | 0.0 | 3.2 | 0.00 | 0.00 | 0.00 | 67 | 1012.8 |
| 20260501210026 | 16 | 239 | 0.0 | 1.6 | 0.00 | 0.00 | 0.00 | 65 | 1012.9 |
| 20260501204504 | 16 | 320 | 0.0 | 3.2 | 0.00 | 0.00 | 0.00 | 65 | 1012.9 |
| 20260501203004 | 16 | 348 | 0.0 | 3.2 | 0.00 | 0.00 | 0.00 | 67 | 1012.8 |
| 20260501201504 | 16 | 46 | 0.0 | 3.2 | 0.00 | 0.00 | 0.00 | 64 | 1013.0 |
| 20260501200005 | 17 | 274 | 0.0 | 4.8 | 0.00 | 0.00 | 0.00 | 60 | 1013.2 |
| 20260501194525 | 17 | 251 | 0.0 | 4.8 | 0.00 | 0.00 | 0.00 | 61 | 1013.3 |
| 20260501193005 | 17 | 30 | 0.0 | 3.2 | 0.00 | 0.00 | 0.00 | 61 | 1013.4 |
| 20260501191505 | 16 | 55 | 0.0 | 4.8 | 0.00 | 0.00 | 0.00 | 65 | 1013.6 |
| 20260501190004 | 15 | 60 | 0.0 | 1.6 | 0.00 | 0.00 | 0.00 | 67 | 1013.6 |
| 20260501184505 | 15 | 19 | 0.0 | 1.6 | 0.00 | 0.00 | 0.00 | 67 | 1014.1 |
| 20260501183004 | 15 | 6 | 0.0 | 1.6 | 0.00 | 0.00 | 0.00 | 66 | 1014.0 |
| 20260501181504 | 15 | 277 | 0.0 | 6.4 | 0.00 | 0.00 | 0.00 | 62 | 1014.5 |
| 20260501180005 | 16 | 287 | 1.6 | 4.8 | 0.00 | 0.00 | 0.00 | 60 | 1014.5 |
| 20260501174504 | 17 | 314 | 0.0 | 9.7 | 0.00 | 0.00 | 0.00 | 63 | 1014.4 |
| 20260501173005 | 17 | 288 | 1.6 | 9.7 | 0.00 | 0.00 | 0.00 | 66 | 1014.4 |
| 20260501171504 | 16 | 335 | 1.6 | 6.4 | 0.00 | 0.00 | 0.00 | 68 | 1014.4 |
| 20260501170004 | 16 | 287 | 1.6 | 9.7 | 0.00 | 0.00 | 0.00 | 65 | 1014.4 |
| 20260501164506 | 17 | 279 | 1.6 | 9.7 | 0.00 | 0.00 | 0.00 | 63 | 1014.5 |
| 20260501163004 | 17 | 298 | 1.6 | 6.4 | 0.00 | 0.00 | 0.00 | 62 | 1014.7 |
| 20260501161504 | 17 | 258 | 1.6 | 8.0 | 0.00 | 0.00 | 0.00 | 63 | 1014.8 |
| 20260501160004 | 17 | 75 | 0.0 | 1.6 | 0.00 | 0.00 | 0.00 | 63 | 1015.0 |
| 20260501154505 | 17 | 65 | 1.6 | 4.8 | 0.00 | 0.00 | 0.00 | 61 | 1015.0 |
| 20260501153003 | 17 | 58 | 0.0 | 4.8 | 0.00 | 0.00 | 0.00 | 62 | 1015.0 |
| 20260501151504 | 16 | 62 | 1.6 | 4.8 | 0.00 | 0.00 | 0.00 | 65 | 1015.0 |
| 20260501150005 | 16 | 69 | 0.0 | 8.0 | 0.00 | 0.00 | 0.00 | 64 | 1014.9 |